| time (UTC) | temp F | wind direction | speed knots | gust knots | rain 1hr in | rain 24hr in | rain mn in | humidity % | barometer mb |
| 20260904102146 | 54 | 105 | 0.0 | 0.0 | 0.02 | 0.70 | 0.10 | 92 | 1018.3 |
| 20260904101644 | 54 | 105 | 0.0 | 0.0 | 0.02 | 0.70 | 0.10 | 92 | 1018.3 |
| 20260904101145 | 54 | 105 | 0.0 | 0.9 | 0.02 | 0.70 | 0.10 | 92 | 1018.3 |
| 20260904100644 | 54 | 105 | 0.0 | 1.7 | 0.02 | 0.69 | 0.09 | 92 | 1018.2 |
| 20260904100142 | 54 | 105 | 0.0 | 1.7 | 0.02 | 0.69 | 0.09 | 92 | 1018.3 |
| 20260904095642 | 54 | 105 | 0.0 | 0.0 | 0.02 | 0.69 | 0.09 | 92 | 1018.3 |
| 20260904095136 | 54 | 105 | 0.0 | 0.9 | 0.02 | 0.68 | 0.08 | 92 | 1018.4 |
| 20260904094635 | 54 | 105 | 0.0 | 0.9 | 0.03 | 0.68 | 0.08 | 92 | 1018.3 |
| 20260904094136 | 54 | 106 | 0.0 | 2.6 | 0.04 | 0.68 | 0.08 | 92 | 1018.3 |
| 20260904093636 | 54 | 105 | 0.0 | 2.6 | 0.05 | 0.68 | 0.08 | 92 | 1018.2 |
| 20260904093135 | 54 | 75 | 0.0 | 1.7 | 0.05 | 0.68 | 0.08 | 92 | 1018.3 |
| 20260904092637 | 54 | 76 | 0.0 | 1.7 | 0.06 | 0.68 | 0.08 | 92 | 1018.2 |
| 20260904092135 | 54 | 76 | 0.0 | 1.7 | 0.06 | 0.68 | 0.08 | 92 | 1018.3 |
| 20260904091632 | 54 | 76 | 0.0 | 2.6 | 0.07 | 0.68 | 0.08 | 92 | 1018.3 |
| 20260904091133 | 54 | 76 | 0.9 | 2.6 | 0.07 | 0.68 | 0.08 | 92 | 1018.3 |
| 20260904090633 | 54 | 76 | 0.9 | 2.6 | 0.07 | 0.67 | 0.07 | 92 | 1018.4 |
| 20260904090130 | 54 | 101 | 0.9 | 2.6 | 0.07 | 0.67 | 0.07 | 92 | 1018.5 |
| 20260904085630 | 54 | 102 | 0.0 | 2.6 | 0.07 | 0.67 | 0.07 | 92 | 1018.4 |
| 20260904085124 | 54 | 98 | 0.0 | 2.6 | 0.06 | 0.66 | 0.06 | 92 | 1018.4 |
| 20260904084624 | 54 | 92 | 0.0 | 2.6 | 0.05 | 0.65 | 0.05 | 92 | 1018.4 |
| 20260904084123 | 54 | 93 | 0.0 | 1.7 | 0.04 | 0.64 | 0.04 | 92 | 1018.4 |
| 20260904083625 | 54 | 98 | 0.0 | 1.7 | 0.03 | 0.63 | 0.04 | 92 | 1018.4 |
| 20260904083124 | 54 | 99 | 0.0 | 1.7 | 0.03 | 0.63 | 0.03 | 92 | 1018.2 |
| 20260904082624 | 54 | 98 | 0.0 | 0.9 | 0.02 | 0.62 | 0.02 | 92 | 1018.3 |
| 20260904082120 | 54 | 98 | 0.0 | 0.9 | 0.02 | 0.62 | 0.02 | 92 | 1018.2 |
| 20260904081620 | 54 | 99 | 0.0 | 0.9 | 0.01 | 0.61 | 0.01 | 92 | 1018.3 |
| 20260904081118 | 54 | 98 | 0.0 | 0.9 | 0.01 | 0.61 | 0.01 | 92 | 1018.4 |
| 20260904080619 | 54 | 99 | 0.0 | 0.0 | 0.00 | 0.60 | 0.00 | 92 | 1018.3 |
| 20260904080118 | 54 | 99 | 0.0 | 0.0 | 0.00 | 0.60 | 0.00 | 92 | 1018.3 |
| 20260904075618 | 54 | 99 | 0.0 | 0.0 | 0.00 | 0.60 | 0.00 | 92 | 1018.3 |
| 20260904075116 | 54 | 98 | 0.0 | 0.0 | 0.00 | 0.60 | 0.00 | 92 | 1018.4 |
| 20260904074617 | 54 | 98 | 0.0 | 0.0 | 0.00 | 0.60 | 0.00 | 92 | 1018.3 |
| 20260904074115 | 54 | 99 | 0.0 | 0.0 | 0.00 | 0.60 | 0.00 | 92 | 1018.4 |
| 20260904073612 | 54 | 98 | 0.0 | 0.0 | 0.00 | 0.60 | 0.00 | 92 | 1018.2 |
| 20260904073110 | 54 | 99 | 0.0 | 0.0 | 0.00 | 0.60 | 0.00 | 92 | 1018.2 |
| 20260904072611 | 54 | 98 | 0.0 | 0.0 | 0.00 | 0.60 | 0.00 | 92 | 1018.2 |
| 20260904072108 | 54 | 99 | 0.0 | 0.0 | 0.00 | 0.60 | 0.00 | 92 | 1018.2 |
| 20260904071606 | 54 | 98 | 0.0 | 0.0 | 0.00 | 0.60 | 0.00 | 92 | 1018.3 |
| 20260904071107 | 54 | 98 | 0.0 | 0.0 | 0.00 | 0.60 | 0.00 | 92 | 1018.2 |
| 20260904070607 | 54 | 99 | 0.0 | 0.0 | 0.00 | 0.60 | 0.00 | 92 | 1018.2 |
| 20260904070104 | 54 | 100 | 0.0 | 0.0 | 0.00 | 0.60 | 0.00 | 92 | 1018.1 |
| 20260904065603 | 54 | 99 | 0.0 | 0.0 | 0.00 | 0.60 | 0.60 | 92 | 1018.1 |
| 20260904065104 | 54 | 100 | 0.0 | 0.0 | 0.00 | 0.60 | 0.60 | 92 | 1018.2 |
| 20260904064600 | 54 | 98 | 0.0 | 0.0 | 0.00 | 0.60 | 0.60 | 92 | 1018.1 |
| 20260904064101 | 54 | 99 | 0.0 | 0.0 | 0.00 | 0.60 | 0.60 | 92 | 1018.2 |
| 20260904063600 | 54 | 99 | 0.0 | 0.0 | 0.00 | 0.60 | 0.60 | 91 | 1018.0 |
| 20260904063058 | 54 | 98 | 0.0 | 0.0 | 0.00 | 0.60 | 0.60 | 91 | 1018.1 |
| 20260904062559 | 54 | 99 | 0.0 | 0.0 | 0.00 | 0.60 | 0.60 | 91 | 1018.0 |
| 20260904062056 | 54 | 99 | 0.0 | 0.0 | 0.00 | 0.60 | 0.60 | 91 | 1018.1 |
| 20260904061554 | 54 | 98 | 0.0 | 0.0 | 0.00 | 0.60 | 0.60 | 91 | 1018.1 |
| 20260904061055 | 54 | 98 | 0.0 | 0.9 | 0.00 | 0.60 | 0.60 | 91 | 1018.1 |
| 20260904060559 | 54 | 99 | 0.0 | 1.7 | 0.00 | 0.60 | 0.60 | 91 | 1018.1 |
| 20260904060052 | 54 | 98 | 0.0 | 1.7 | 0.00 | 0.60 | 0.60 | 91 | 1018.0 |
| 20260904055553 | 54 | 98 | 0.0 | 0.0 | 0.00 | 0.60 | 0.60 | 91 | 1018.0 |
| 20260904055045 | 54 | 98 | 0.0 | 0.0 | 0.00 | 0.60 | 0.60 | 91 | 1018.0 |
| 20260904054547 | 54 | 98 | 0.0 | 0.0 | 0.00 | 0.60 | 0.60 | 91 | 1018.0 |
| 20260904054045 | 54 | 99 | 0.0 | 0.0 | 0.00 | 0.60 | 0.60 | 91 | 1017.9 |
| 20260904053547 | 54 | 98 | 0.0 | 0.0 | 0.00 | 0.60 | 0.60 | 91 | 1018.0 |
| 20260904053046 | 54 | 98 | 0.0 | 0.0 | 0.00 | 0.60 | 0.60 | 91 | 1018.0 |
| 20260904052545 | 54 | 98 | 0.0 | 1.7 | 0.00 | 0.60 | 0.60 | 91 | 1018.0 |
| 20260904052043 | 54 | 99 | 0.0 | 1.7 | 0.00 | 0.60 | 0.60 | 91 | 1018.0 |
| 20260904051542 | 54 | 98 | 0.0 | 0.0 | 0.00 | 0.60 | 0.60 | 91 | 1018.1 |
| 20260904051040 | 54 | 97 | 0.0 | 0.0 | 0.00 | 0.60 | 0.60 | 91 | 1018.1 |
| 20260904050539 | 54 | 98 | 0.0 | 0.0 | 0.00 | 0.60 | 0.60 | 91 | 1018.2 |
| 20260904050040 | 54 | 98 | 0.0 | 0.9 | 0.00 | 0.60 | 0.60 | 91 | 1018.1 |
| 20260904045540 | 54 | 97 | 0.0 | 0.9 | 0.00 | 0.60 | 0.60 | 91 | 1018.2 |
| 20260904045034 | 54 | 98 | 0.0 | 0.9 | 0.00 | 0.60 | 0.60 | 91 | 1018.2 |
| 20260904044533 | 55 | 98 | 0.0 | 0.9 | 0.00 | 0.60 | 0.60 | 91 | 1018.2 |
| 20260904044030 | 55 | 98 | 0.0 | 0.0 | 0.00 | 0.60 | 0.60 | 91 | 1018.1 |
| 20260904043528 | 55 | 98 | 0.0 | 1.7 | 0.01 | 0.60 | 0.60 | 91 | 1018.2 |
| 20260904043028 | 55 | 98 | 0.0 | 2.6 | 0.01 | 0.60 | 0.60 | 91 | 1018.2 |
| 20260904042522 | 55 | 98 | 0.0 | 2.6 | 0.01 | 0.60 | 0.60 | 91 | 1018.2 |
| 20260904042022 | 55 | 98 | 0.0 | 1.7 | 0.01 | 0.60 | 0.60 | 91 | 1018.1 |
| 20260904041523 | 55 | 98 | 0.0 | 1.7 | 0.01 | 0.60 | 0.60 | 91 | 1018.1 |
| 20260904041021 | 55 | 98 | 0.0 | 1.7 | 0.01 | 0.60 | 0.60 | 91 | 1018.1 |
| 20260904040521 | 55 | 99 | 0.0 | 2.6 | 0.02 | 0.60 | 0.60 | 91 | 1018.2 |
| 20260904040021 | 55 | 98 | 0.9 | 3.5 | 0.02 | 0.60 | 0.60 | 91 | 1018.2 |
| 20260904035522 | 55 | 81 | 0.9 | 3.5 | 0.02 | 0.60 | 0.60 | 91 | 1018.3 |
| 20260904035016 | 55 | 101 | 0.9 | 2.6 | 0.02 | 0.60 | 0.60 | 91 | 1018.2 |
| 20260904034517 | 55 | 129 | 0.9 | 3.5 | 0.02 | 0.60 | 0.60 | 90 | 1018.1 |
| 20260904034016 | 55 | 134 | 0.9 | 3.5 | 0.03 | 0.60 | 0.60 | 91 | 1018.2 |
| 20260904033515 | 56 | 110 | 0.9 | 2.6 | 0.04 | 0.59 | 0.59 | 91 | 1018.1 |
| 20260904033015 | 56 | 117 | 0.9 | 2.6 | 0.06 | 0.59 | 0.59 | 91 | 1018.1 |
| 20260904032517 | 56 | 142 | 0.9 | 2.6 | 0.07 | 0.59 | 0.59 | 91 | 1018.0 |
| 20260904032010 | 56 | 136 | 0.9 | 6.1 | 0.07 | 0.59 | 0.59 | 91 | 1018.1 |
| 20260904031512 | 56 | 154 | 0.9 | 6.1 | 0.08 | 0.59 | 0.59 | 91 | 1018.1 |
| 20260904031009 | 56 | 181 | 1.7 | 6.1 | 0.08 | 0.59 | 0.59 | 91 | 1018.1 |
| 20260904030509 | 56 | 136 | 1.7 | 6.1 | 0.07 | 0.58 | 0.58 | 91 | 1018.1 |
| 20260904030008 | 56 | 149 | 1.7 | 4.3 | 0.07 | 0.58 | 0.58 | 91 | 1018.1 |
| 20260904025507 | 56 | 149 | 1.7 | 6.1 | 0.07 | 0.58 | 0.58 | 91 | 1018.1 |
| 20260904025008 | 56 | 159 | 2.6 | 6.1 | 0.07 | 0.58 | 0.58 | 91 | 1018.1 |
| 20260904024505 | 56 | 167 | 1.7 | 6.1 | 0.07 | 0.58 | 0.58 | 91 | 1018.2 |
| 20260904024006 | 56 | 182 | 0.9 | 6.1 | 0.06 | 0.57 | 0.57 | 91 | 1018.2 |
| 20260904023506 | 56 | 170 | 0.9 | 5.2 | 0.04 | 0.55 | 0.55 | 90 | 1018.0 |
| 20260904023002 | 56 | 159 | 0.9 | 4.3 | 0.02 | 0.53 | 0.54 | 90 | 1018.0 |
| 20260904022501 | 56 | 158 | 0.9 | 4.3 | 0.01 | 0.52 | 0.52 | 90 | 1018.0 |
| 20260904022003 | 56 | 165 | 0.9 | 4.3 | 0.01 | 0.52 | 0.52 | 90 | 1018.0 |
| 20260904021501 | 56 | 165 | 0.9 | 5.2 | 0.00 | 0.51 | 0.51 | 90 | 1018.0 |
| 20260904021001 | 56 | 161 | 0.9 | 5.2 | 0.00 | 0.51 | 0.51 | 89 | 1018.1 |
| 20260904020503 | 56 | 188 | 0.9 | 3.5 | 0.00 | 0.51 | 0.51 | 90 | 1018.1 |
| 20260904015957 | 56 | 159 | 0.9 | 2.6 | 0.01 | 0.51 | 0.51 | 89 | 1018.1 |
| 20260904015459 | 57 | 140 | 0.9 | 3.5 | 0.01 | 0.51 | 0.51 | 89 | 1018.1 |
| 20260904014957 | 57 | 122 | 0.0 | 3.5 | 0.01 | 0.51 | 0.51 | 89 | 1018.0 |
| 20260904014458 | 57 | 152 | 0.9 | 3.5 | 0.01 | 0.51 | 0.51 | 89 | 1018.0 |
| 20260904013957 | 57 | 153 | 0.9 | 3.5 | 0.01 | 0.51 | 0.51 | 89 | 1017.9 |
| 20260904013459 | 57 | 158 | 0.9 | 4.3 | 0.01 | 0.52 | 0.51 | 88 | 1018.0 |
| 20260904012955 | 57 | 163 | 1.7 | 4.3 | 0.01 | 0.52 | 0.51 | 88 | 1017.9 |
| 20260904012454 | 57 | 151 | 1.7 | 6.1 | 0.01 | 0.52 | 0.51 | 88 | 1017.9 |
| 20260904011953 | 58 | 143 | 1.7 | 6.1 | 0.01 | 0.52 | 0.51 | 88 | 1017.8 |
| 20260904011454 | 58 | 196 | 0.9 | 3.5 | 0.01 | 0.52 | 0.51 | 89 | 1017.9 |
| 20260904010954 | 58 | 158 | 1.7 | 7.0 | 0.02 | 0.52 | 0.51 | 88 | 1018.0 |
| 20260904010454 | 58 | 172 | 1.7 | 7.0 | 0.04 | 0.52 | 0.51 | 89 | 1017.9 |
| 20260904005951 | 58 | 128 | 1.7 | 6.1 | 0.04 | 0.51 | 0.50 | 89 | 1017.8 |
| 20260904005451 | 58 | 121 | 1.7 | 7.0 | 0.05 | 0.51 | 0.50 | 89 | 1017.7 |
| 20260904004952 | 59 | 146 | 1.7 | 7.0 | 0.06 | 0.51 | 0.50 | 89 | 1017.7 |
| 20260904004452 | 59 | 130 | 1.7 | 5.2 | 0.06 | 0.53 | 0.50 | 90 | 1017.8 |
| 20260904003951 | 59 | 135 | 1.7 | 6.1 | 0.06 | 0.53 | 0.50 | 90 | 1017.8 |
| 20260904003452 | 59 | 146 | 1.7 | 6.1 | 0.06 | 0.54 | 0.50 | 90 | 1017.8 |
| 20260904002948 | 59 | 126 | 0.9 | 4.3 | 0.06 | 0.54 | 0.50 | 90 | 1017.9 |
| 20260904002447 | 59 | 117 | 0.0 | 1.7 | 0.06 | 0.54 | 0.50 | 90 | 1017.9 |
| 20260904001947 | 59 | 117 | 0.0 | 1.7 | 0.06 | 0.54 | 0.50 | 89 | 1018.0 |
| 20260904001447 | 59 | 117 | 0.9 | 2.6 | 0.06 | 0.54 | 0.50 | 89 | 1017.9 |
| 20260904000948 | 59 | 117 | 0.9 | 2.6 | 0.05 | 0.53 | 0.49 | 89 | 1018.1 |
| 20260904000448 | 59 | 116 | 0.9 | 2.6 | 0.03 | 0.51 | 0.48 | 89 | 1018.2 |
| 20260903235948 | 59 | 117 | 0.9 | 3.5 | 0.03 | 0.50 | 0.46 | 88 | 1018.2 |
| 20260903235445 | 59 | 117 | 1.7 | 3.5 | 0.02 | 0.49 | 0.45 | 88 | 1018.1 |
| 20260903234943 | 59 | 103 | 0.9 | 3.5 | 0.02 | 0.48 | 0.44 | 88 | 1018.0 |
| 20260903234441 | 59 | 143 | 0.9 | 4.3 | 0.03 | 0.48 | 0.44 | 89 | 1017.9 |
| 20260903233941 | 59 | 144 | 0.9 | 4.3 | 0.03 | 0.48 | 0.44 | 89 | 1017.9 |
| 20260903233441 | 59 | 148 | 0.9 | 3.5 | 0.04 | 0.48 | 0.44 | 88 | 1018.0 |
| 20260903232942 | 59 | 159 | 0.9 | 2.6 | 0.04 | 0.48 | 0.44 | 89 | 1018.1 |
| 20260903232439 | 59 | 154 | 0.9 | 2.6 | 0.04 | 0.48 | 0.44 | 90 | 1018.1 |
| 20260903231937 | 58 | 149 | 0.9 | 2.6 | 0.04 | 0.48 | 0.44 | 90 | 1018.1 |
| 20260903231437 | 58 | 151 | 0.9 | 2.6 | 0.04 | 0.50 | 0.44 | 90 | 1018.1 |
| 20260903230937 | 57 | 157 | 0.0 | 2.6 | 0.04 | 0.56 | 0.44 | 90 | 1018.1 |
| 20260903230435 | 57 | 155 | 0.0 | 1.7 | 0.04 | 0.57 | 0.44 | 90 | 1018.1 |
| 20260903225935 | 57 | 155 | 0.0 | 2.6 | 0.04 | 0.57 | 0.43 | 90 | 1018.2 |
| 20260903225431 | 57 | 155 | 0.0 | 2.6 | 0.04 | 0.57 | 0.43 | 90 | 1018.3 |
| 20260903224929 | 57 | 139 | 0.9 | 3.5 | 0.05 | 0.57 | 0.42 | 90 | 1018.4 |
| 20260903224429 | 57 | 273 | 0.9 | 3.5 | 0.06 | 0.57 | 0.41 | 90 | 1018.4 |
| 20260903223930 | 57 | 264 | 0.9 | 3.5 | 0.07 | 0.57 | 0.41 | 90 | 1018.3 |
| 20260903223429 | 57 | 227 | 0.9 | 2.6 | 0.08 | 0.57 | 0.40 | 89 | 1018.4 |
| 20260903222930 | 56 | 227 | 0.9 | 2.6 | 0.12 | 0.58 | 0.40 | 90 | 1018.2 |
| 20260903222424 | 56 | 178 | 1.7 | 4.3 | 0.13 | 0.58 | 0.40 | 90 | 1018.3 |
| 20260903221923 | 56 | 180 | 1.7 | 4.3 | 0.15 | 0.58 | 0.40 | 90 | 1018.3 |
| 20260903221423 | 56 | 186 | 0.0 | 2.6 | 0.15 | 0.59 | 0.40 | 90 | 1018.2 |
| 20260903220923 | 55 | 129 | 0.0 | 1.7 | 0.16 | 0.59 | 0.40 | 91 | 1018.3 |
| 20260903220428 | 55 | 129 | 0.0 | 0.9 | 0.16 | 0.59 | 0.40 | 90 | 1018.3 |
| 20260903215923 | 55 | 130 | 0.0 | 0.9 | 0.15 | 0.58 | 0.39 | 89 | 1018.3 |
| 20260903215420 | 55 | 130 | 0.9 | 4.3 | 0.15 | 0.58 | 0.39 | 89 | 1018.3 |
| 20260903214920 | 55 | 128 | 0.9 | 6.1 | 0.13 | 0.56 | 0.37 | 89 | 1018.7 |
| 20260903214417 | 55 | 203 | 0.9 | 6.1 | 0.11 | 0.55 | 0.36 | 88 | 1018.7 |
| 20260903213917 | 56 | 175 | 1.7 | 7.0 | 0.09 | 0.53 | 0.34 | 88 | 1018.9 |
| 20260903213417 | 56 | 201 | 1.7 | 7.0 | 0.08 | 0.52 | 0.32 | 88 | 1019.0 |
| 20260903212917 | 56 | 229 | 0.9 | 3.5 | 0.04 | 0.48 | 0.28 | 88 | 1018.8 |
| 20260903212415 | 57 | 217 | 1.7 | 4.3 | 0.02 | 0.46 | 0.27 | 87 | 1018.8 |
| 20260903211913 | 57 | 225 | 2.6 | 7.8 | 0.01 | 0.46 | 0.26 | 86 | 1018.7 |
| 20260903211411 | 58 | 241 | 2.6 | 7.8 | 0.01 | 0.46 | 0.25 | 85 | 1018.7 |
| 20260903210911 | 58 | 263 | 1.7 | 4.3 | 0.00 | 0.45 | 0.24 | 84 | 1018.7 |
| 20260903210411 | 58 | 255 | 1.7 | 6.1 | 0.00 | 0.45 | 0.24 | 84 | 1018.5 |
| 20260903205912 | 58 | 271 | 2.6 | 7.0 | 0.00 | 0.45 | 0.24 | 83 | 1018.5 |
| 20260903205408 | 58 | 289 | 2.6 | 7.0 | 0.00 | 0.46 | 0.24 | 83 | 1018.3 |
| 20260903204907 | 58 | 248 | 1.7 | 7.0 | 0.00 | 0.46 | 0.24 | 82 | 1018.4 |
| 20260903204405 | 59 | 260 | 1.7 | 8.7 | 0.00 | 0.46 | 0.24 | 83 | 1018.3 |
| 20260903203905 | 59 | 207 | 2.6 | 8.7 | 0.00 | 0.46 | 0.24 | 83 | 1018.5 |
| 20260903203405 | 59 | 245 | 3.5 | 8.7 | 0.00 | 0.46 | 0.24 | 83 | 1018.5 |
| 20260903202906 | 60 | 257 | 3.5 | 8.7 | 0.00 | 0.46 | 0.24 | 84 | 1018.7 |
| 20260903202400 | 60 | 166 | 2.6 | 7.0 | 0.00 | 0.46 | 0.24 | 85 | 1018.7 |
| 20260903201859 | 60 | 161 | 2.6 | 7.8 | 0.00 | 0.46 | 0.24 | 86 | 1018.5 |
| 20260903201359 | 60 | 181 | 2.6 | 7.8 | 0.00 | 0.46 | 0.24 | 86 | 1018.5 |
| 20260903200859 | 59 | 148 | 2.6 | 7.8 | 0.00 | 0.46 | 0.24 | 87 | 1018.5 |
| 20260903200359 | 59 | 134 | 2.6 | 9.6 | 0.00 | 0.46 | 0.24 | 87 | 1018.5 |
| 20260903195900 | 59 | 138 | 2.6 | 9.6 | 0.00 | 0.46 | 0.24 | 87 | 1018.4 |
| 20260903195357 | 59 | 151 | 2.6 | 9.6 | 0.00 | 0.46 | 0.24 | 87 | 1018.5 |
| 20260903194857 | 59 | 213 | 3.5 | 11.3 | 0.00 | 0.46 | 0.24 | 87 | 1018.7 |
| 20260903194357 | 59 | 181 | 3.5 | 11.3 | 0.00 | 0.47 | 0.24 | 87 | 1018.8 |
| 20260903193857 | 59 | 123 | 3.5 | 9.6 | 0.00 | 0.47 | 0.24 | 87 | 1018.7 |
| 20260903193358 | 59 | 137 | 3.5 | 9.6 | 0.00 | 0.47 | 0.24 | 87 | 1018.7 |
| 20260903192857 | 59 | 99 | 3.5 | 8.7 | 0.00 | 0.47 | 0.24 | 87 | 1018.5 |
| 20260903192358 | 59 | 141 | 3.5 | 8.7 | 0.00 | 0.48 | 0.24 | 87 | 1018.7 |
| 20260903191852 | 60 | 137 | 3.5 | 8.7 | 0.00 | 0.49 | 0.24 | 86 | 1018.4 |
| 20260903191351 | 60 | 168 | 2.6 | 9.6 | 0.00 | 0.49 | 0.24 | 86 | 1018.7 |
| 20260903190851 | 60 | 157 | 2.6 | 9.6 | 0.00 | 0.49 | 0.24 | 86 | 1018.5 |
| 20260903190351 | 60 | 185 | 3.5 | 11.3 | 0.00 | 0.50 | 0.24 | 86 | 1018.7 |
| 20260903185851 | 61 | 198 | 3.5 | 11.3 | 0.00 | 0.51 | 0.24 | 87 | 1018.5 |
| 20260903185352 | 61 | 172 | 2.6 | 11.3 | 0.00 | 0.51 | 0.24 | 88 | 1018.7 |
| 20260903184845 | 60 | 125 | 1.7 | 6.1 | 0.00 | 0.52 | 0.24 | 89 | 1018.5 |
| 20260903184345 | 60 | 150 | 1.7 | 9.6 | 0.00 | 0.53 | 0.24 | 89 | 1018.7 |
| 20260903183844 | 60 | 114 | 2.6 | 9.6 | 0.00 | 0.54 | 0.24 | 89 | 1018.5 |
| 20260903183346 | 59 | 139 | 2.6 | 8.7 | 0.01 | 0.56 | 0.24 | 89 | 1018.5 |
| 20260903182844 | 59 | 145 | 2.6 | 8.7 | 0.01 | 0.57 | 0.24 | 89 | 1018.7 |
| 20260903182346 | 59 | 141 | 2.6 | 8.7 | 0.01 | 0.59 | 0.24 | 90 | 1018.8 |
| 20260903181840 | 59 | 223 | 1.7 | 7.8 | 0.02 | 0.61 | 0.24 | 89 | 1018.7 |
| 20260903181339 | 59 | 175 | 1.7 | 7.0 | 0.03 | 0.63 | 0.24 | 90 | 1018.7 |
| 20260903180840 | 59 | 169 | 2.6 | 8.7 | 0.04 | 0.64 | 0.24 | 89 | 1018.7 |
| 20260903180339 | 59 | 154 | 2.6 | 8.7 | 0.05 | 0.66 | 0.24 | 89 | 1018.7 |
| 20260903175839 | 58 | 134 | 3.5 | 10.4 | 0.05 | 0.67 | 0.24 | 89 | 1018.5 |
| 20260903175339 | 58 | 130 | 3.5 | 10.4 | 0.06 | 0.67 | 0.24 | 89 | 1018.5 |
| 20260903174840 | 58 | 142 | 2.6 | 10.4 | 0.07 | 0.67 | 0.24 | 90 | 1018.5 |
| 20260903174333 | 58 | 186 | 2.6 | 9.6 | 0.07 | 0.67 | 0.24 | 91 | 1018.7 |
| 20260903173832 | 58 | 132 | 2.6 | 9.6 | 0.07 | 0.67 | 0.24 | 90 | 1018.5 |
| 20260903173332 | 57 | 154 | 2.6 | 9.6 | 0.06 | 0.66 | 0.23 | 90 | 1018.5 |
| 20260903172833 | 57 | 130 | 2.6 | 9.6 | 0.06 | 0.67 | 0.23 | 89 | 1018.5 |
| 20260903172332 | 57 | 149 | 2.6 | 9.6 | 0.06 | 0.67 | 0.23 | 89 | 1018.5 |
| 20260903171832 | 57 | 143 | 1.7 | 6.1 | 0.05 | 0.67 | 0.23 | 89 | 1018.5 |
| 20260903171334 | 58 | 167 | 1.7 | 9.6 | 0.04 | 0.67 | 0.21 | 88 | 1018.7 |
| 20260903170828 | 58 | 186 | 1.7 | 9.6 | 0.03 | 0.67 | 0.20 | 88 | 1018.9 |
| 20260903170323 | 58 | 189 | 1.7 | 7.0 | 0.02 | 0.67 | 0.19 | 88 | 1018.8 |
| 20260903165821 | 58 | 173 | 2.6 | 7.0 | 0.02 | 0.68 | 0.19 | 88 | 1018.7 |
| 20260903165320 | 58 | 175 | 2.6 | 7.8 | 0.01 | 0.67 | 0.18 | 87 | 1018.7 |
| 20260903164820 | 59 | 132 | 2.6 | 8.7 | 0.00 | 0.67 | 0.17 | 87 | 1018.5 |
| 20260903164321 | 59 | 131 | 2.6 | 12.2 | 0.00 | 0.67 | 0.17 | 87 | 1018.5 |
| 20260903163820 | 59 | 167 | 2.6 | 12.2 | 0.00 | 0.67 | 0.17 | 87 | 1018.5 |
| 20260903163323 | 59 | 131 | 2.6 | 8.7 | 0.00 | 0.68 | 0.17 | 87 | 1018.5 |
| 20260903162816 | 59 | 165 | 1.7 | 8.7 | 0.00 | 0.68 | 0.17 | 88 | 1018.7 |
| 20260903162317 | 59 | 159 | 1.7 | 7.0 | 0.00 | 0.68 | 0.17 | 89 | 1018.7 |
| 20260903161818 | 58 | 159 | 2.6 | 9.6 | 0.00 | 0.68 | 0.17 | 89 | 1018.8 |
| 20260903161316 | 58 | 112 | 2.6 | 9.6 | 0.00 | 0.68 | 0.17 | 90 | 1018.5 |
| 20260903160817 | 57 | 114 | 1.7 | 7.0 | 0.00 | 0.68 | 0.17 | 91 | 1018.7 |
| 20260903160317 | 56 | 119 | 1.7 | 6.1 | 0.00 | 0.68 | 0.17 | 91 | 1018.4 |
| 20260903155812 | 56 | 133 | 1.7 | 6.1 | 0.00 | 0.68 | 0.17 | 90 | 1018.4 |
| 20260903155312 | 56 | 115 | 1.7 | 6.1 | 0.00 | 0.68 | 0.17 | 90 | 1018.5 |
| 20260903154814 | 56 | 173 | 1.7 | 7.0 | 0.00 | 0.68 | 0.17 | 90 | 1018.5 |
| 20260903154312 | 56 | 157 | 1.7 | 7.0 | 0.00 | 0.68 | 0.17 | 91 | 1018.5 |
| 20260903153812 | 55 | 151 | 1.7 | 6.1 | 0.00 | 0.68 | 0.17 | 91 | 1018.5 |
| 20260903153314 | 55 | 175 | 1.7 | 9.6 | 0.00 | 0.68 | 0.17 | 91 | 1018.5 |
| 20260903152809 | 55 | 106 | 1.7 | 9.6 | 0.00 | 0.68 | 0.17 | 91 | 1018.5 |
| 20260903152309 | 55 | 151 | 0.9 | 6.1 | 0.00 | 0.68 | 0.17 | 91 | 1018.4 |
| 20260903151810 | 55 | 128 | 0.9 | 6.1 | 0.00 | 0.68 | 0.17 | 91 | 1018.4 |
| 20260903151308 | 55 | 139 | 0.9 | 8.7 | 0.00 | 0.68 | 0.17 | 91 | 1018.5 |
| 20260903150808 | 55 | 146 | 1.7 | 8.7 | 0.00 | 0.68 | 0.17 | 91 | 1018.5 |
| 20260903150310 | 55 | 137 | 2.6 | 7.0 | 0.00 | 0.68 | 0.17 | 91 | 1018.4 |
| 20260903145806 | 55 | 130 | 1.7 | 6.1 | 0.01 | 0.68 | 0.17 | 91 | 1018.5 |
| 20260903145306 | 55 | 132 | 1.7 | 6.1 | 0.02 | 0.68 | 0.17 | 91 | 1018.4 |
| 20260903144804 | 55 | 157 | 1.7 | 6.1 | 0.03 | 0.68 | 0.17 | 91 | 1018.4 |
| 20260903144304 | 55 | 171 | 1.7 | 6.1 | 0.05 | 0.68 | 0.17 | 91 | 1018.4 |
| 20260903144035 | 55 | 99 | 1.7 | 7.0 | 0.06 | 0.68 | 0.17 | 92 | 1018.3 |
| 20260903143304 | 55 | 146 | 1.7 | 7.0 | 0.06 | 0.68 | 0.17 | 92 | 1018.4 |
| 20260903142803 | 55 | 119 | 1.7 | 7.0 | 0.07 | 0.68 | 0.17 | 92 | 1018.3 |
| 20260903142531 | 55 | 102 | 1.7 | 7.0 | 0.09 | 0.68 | 0.17 | 92 | 1018.2 |
| 20260903141801 | 55 | 134 | 0.9 | 5.2 | 0.13 | 0.68 | 0.17 | 91 | 1018.3 |
| 20260903141302 | 55 | 145 | 1.7 | 5.2 | 0.15 | 0.68 | 0.17 | 91 | 1018.4 |
| 20260903140800 | 55 | 154 | 1.7 | 7.8 | 0.16 | 0.68 | 0.17 | 91 | 1018.3 |
| 20260903140258 | 55 | 172 | 1.7 | 7.8 | 0.16 | 0.68 | 0.17 | 91 | 1018.4 |
| 20260903135759 | 55 | 155 | 2.6 | 8.7 | 0.15 | 0.67 | 0.16 | 91 | 1018.4 |
| 20260903135252 | 55 | 148 | 3.5 | 9.6 | 0.15 | 0.66 | 0.15 | 91 | 1018.3 |
| 20260903134752 | 55 | 111 | 2.6 | 9.6 | 0.14 | 0.65 | 0.14 | 91 | 1018.5 |
| 20260903134252 | 55 | 125 | 1.7 | 7.8 | 0.12 | 0.63 | 0.12 | 91 | 1018.5 |
| 20260903133752 | 55 | 198 | 1.7 | 8.7 | 0.11 | 0.62 | 0.11 | 91 | 1018.5 |
| 20260903133252 | 55 | 152 | 2.6 | 9.6 | 0.11 | 0.62 | 0.11 | 91 | 1018.4 |
| 20260903132752 | 55 | 194 | 3.5 | 9.6 | 0.10 | 0.61 | 0.10 | 90 | 1018.4 |
| 20260903132247 | 55 | 97 | 2.6 | 7.8 | 0.08 | 0.59 | 0.08 | 90 | 1018.4 |
| 20260903131746 | 55 | 149 | 1.7 | 6.1 | 0.04 | 0.55 | 0.04 | 90 | 1018.3 |
| 20260903131246 | 55 | 151 | 1.7 | 7.0 | 0.02 | 0.53 | 0.03 | 90 | 1018.2 |
| 20260903130746 | 55 | 178 | 1.7 | 7.0 | 0.01 | 0.52 | 0.02 | 90 | 1018.3 |
| 20260903130246 | 56 | 159 | 1.7 | 7.0 | 0.01 | 0.52 | 0.01 | 90 | 1018.1 |
| 20260903125747 | 56 | 191 | 2.6 | 7.0 | 0.01 | 0.52 | 0.01 | 90 | 1018.1 |
| 20260903125242 | 56 | 181 | 1.7 | 7.0 | 0.00 | 0.51 | 0.00 | 90 | 1018.0 |
| 20260903124742 | 55 | 217 | 1.7 | 6.1 | 0.00 | 0.51 | 0.00 | 90 | 1017.9 |
| 20260903124243 | 55 | 148 | 2.6 | 7.8 | 0.00 | 0.51 | 0.00 | 90 | 1018.1 |
| 20260903123742 | 55 | 149 | 1.7 | 7.8 | 0.00 | 0.51 | 0.00 | 90 | 1018.1 |
| 20260903123240 | 55 | 146 | 1.7 | 6.1 | 0.00 | 0.51 | 0.00 | 90 | 1018.0 |
| 20260903122740 | 55 | 144 | 2.6 | 7.0 | 0.00 | 0.51 | 0.00 | 90 | 1018.1 |
| 20260903122235 | 55 | 159 | 2.6 | 12.2 | 0.00 | 0.51 | 0.00 | 90 | 1018.1 |
| 20260903121734 | 55 | 148 | 2.6 | 12.2 | 0.00 | 0.51 | 0.00 | 90 | 1018.2 |
| 20260903121234 | 55 | 155 | 3.5 | 8.7 | 0.00 | 0.51 | 0.00 | 90 | 1018.2 |
| 20260903120734 | 55 | 128 | 2.6 | 7.8 | 0.00 | 0.51 | 0.00 | 90 | 1018.2 |
| 20260903120234 | 55 | 185 | 2.6 | 7.8 | 0.00 | 0.51 | 0.00 | 90 | 1018.2 |
| 20260903115735 | 55 | 155 | 3.5 | 10.4 | 0.00 | 0.51 | 0.00 | 90 | 1018.2 |
| 20260903115229 | 55 | 126 | 3.5 | 10.4 | 0.00 | 0.51 | 0.00 | 90 | 1018.3 |
| 20260903114727 | 55 | 169 | 3.5 | 12.2 | 0.00 | 0.51 | 0.00 | 90 | 1018.3 |
| 20260903114228 | 55 | 136 | 3.5 | 12.2 | 0.00 | 0.51 | 0.00 | 90 | 1018.2 |
| 20260903113728 | 55 | 171 | 2.6 | 8.7 | 0.00 | 0.51 | 0.00 | 90 | 1018.3 |
| 20260903113228 | 55 | 169 | 2.6 | 8.7 | 0.00 | 0.51 | 0.00 | 90 | 1018.3 |
| 20260903112730 | 55 | 140 | 2.6 | 8.7 | 0.00 | 0.51 | 0.00 | 90 | 1018.3 |
| 20260903112223 | 55 | 130 | 2.6 | 7.0 | 0.00 | 0.51 | 0.00 | 89 | 1018.2 |
| 20260903111722 | 55 | 109 | 1.7 | 7.0 | 0.00 | 0.51 | 0.00 | 90 | 1018.2 |
| 20260903111222 | 55 | 115 | 1.7 | 6.1 | 0.00 | 0.51 | 0.00 | 90 | 1018.2 |
| 20260903110722 | 55 | 146 | 1.7 | 7.0 | 0.00 | 0.51 | 0.00 | 89 | 1018.3 |
| 20260903110222 | 55 | 156 | 1.7 | 7.0 | 0.00 | 0.51 | 0.00 | 89 | 1018.4 |
| 20260903105723 | 56 | 153 | 1.7 | 7.0 | 0.00 | 0.51 | 0.00 | 89 | 1018.4 |
| 20260903105218 | 56 | 186 | 1.7 | 7.8 | 0.00 | 0.51 | 0.00 | 89 | 1018.4 |
| 20260903104716 | 56 | 146 | 2.6 | 8.7 | 0.00 | 0.51 | 0.00 | 89 | 1018.5 |
| 20260903104216 | 56 | 173 | 1.7 | 8.7 | 0.00 | 0.51 | 0.00 | 89 | 1018.4 |
| 20260903103722 | 56 | 167 | 1.7 | 5.2 | 0.00 | 0.51 | 0.00 | 89 | 1018.5 |
| 20260903103215 | 56 | 149 | 1.7 | 7.8 | 0.00 | 0.51 | 0.00 | 89 | 1018.7 |
| 20260903102717 | 56 | 148 | 2.6 | 7.8 | 0.00 | 0.51 | 0.00 | 89 | 1018.7 |